Simultaneous Nadir Overpasses (SNOs) Predictions

Prediction of SNOs between LANDSAT-8 and NOAA-19 Satellite Orbit:

Table of predicted SNOs for the next 14.0 days since TLE Epoch: 12/24/2016
Index Date (LANDSAT-8) Time (LANDSAT-8) Lat,Lon (LANDSAT-8) SZA (LANDSAT-8 ) Date (NOAA-19) Time (NOAA-19) Lat,Lon (NOAA-19) SZA (NOAA-19 ) Distance(km) Time Diff (sec)
1 12/24/2016 04:59:30 75.50, 111.94 98.92 12/24/2016 04:59:13 75.49, 111.99 98.91 1.81 17
2 12/24/2016 05:49:00 -75.37, -80.78 81.22 12/24/2016 05:50:13 -75.34, -80.30 81.23 13.66 73
3 12/26/2016 10:33:15 -75.50,-151.50 81.16 12/26/2016 10:33:11 -75.48,-151.41 81.18 3.20 4
4 12/26/2016 11:22:52 74.92, 14.59 98.23 12/26/2016 11:23:57 74.92, 17.61 98.32 87.39 65
5 12/28/2016 15:17:25 -75.87, 138.50 80.88 12/28/2016 15:16:16 -75.93, 136.37 80.87 58.25 69
6 12/28/2016 16:06:58 75.50, -54.93 98.73 12/28/2016 16:07:04 75.50, -54.88 98.73 1.42 6
7 12/30/2016 20:51:14 75.56,-125.82 98.65 12/30/2016 20:50:01 75.62,-125.95 98.69 6.77 73
8 12/30/2016 21:40:43 -75.49, 41.62 81.43 12/30/2016 21:41:03 -75.50, 41.67 81.42 1.57 20
9 01/02/2017 02:24:59 -75.56, -29.27 81.55 01/02/2017 02:23:59 -75.56, -29.19 81.56 2.15 60
10 01/02/2017 03:14:25 75.53, 138.29 98.42 01/02/2017 03:14:55 75.52, 138.20 98.41 3.00 30
11 01/04/2017 07:58:41 75.59, 67.39 98.26 01/04/2017 07:57:51 75.60, 67.27 98.26 3.42 50
12 01/04/2017 08:48:10 -75.53,-125.16 81.82 01/04/2017 08:48:54 -75.49,-125.16 81.84 3.80 44
13 01/06/2017 13:32:26 -75.59, 163.94 82.01 01/06/2017 13:31:50 -75.56, 163.94 82.04 2.73 36




NCC Satellite Simultaneous Nadir Overpasses (SNOs) Prediction Service
